Location: Cieszkowy
(50.3290°N, 20.5336°E)
Time: 20:31:31
(UTC+00:00)

Cosmos 990 Rocket - Pass Details

Date: 11 September 2024
Orbit: 744 x 765 km, 74.0° (Epoch: 13 October)

Event Time Altitude Azimuth Distance (km) Brightness Sun altitude
Rises 17:51:53 0° 321° (NW) 3,237 8.3 -9.0°
Reaches altitude 10° 17:55:23 10° 297° (WNW) 2,301 8.1 -9.5°
Maximum altitude 17:57:58 14° 267° (W) 2,028 7.4 -9.9°
Drops below altitude 10° 18:00:34 10° 237° (WSW) 2,285 7.0 -10.3°
Sets 18:04:02 0° 213° (SSW) 3,199 7.4 -10.8°
